Date String (YYYY-MM-DD hh:mm:ss) UTC,Instrument flags,Ambient pressure (hPa),Sample flow (lpm),Bypass flow (lpm),Sample temperature (°C),Ambient temperature (°C),ASC tube jacket temperature (°C),LED temperature (°C),Box temperature (°C),Sample RH (%),Span deviation,Mass concentration (μg/m³),Mass concentration (μg/m³),Mass concentration (μg/m³)
DateTimeUTC,F1_M11,P_M11,Q1_M11,Q2_M11,T1_M11,T2_M11,T3_M11,T4_M11,T5_M11,U1_M11,ZSPAN_M11,X2_M11,X0_M11,X1_M11
2023-03-12 05:00:00,,0822.4,4.98,0.00,22.4,22.3,00.0,31.0,24.3,11.2,0000.0,0001.64,0005.31,0000.50
2023-03-12 05:01:00,,0822.4,4.98,0.00,22.4,22.4,00.0,31.0,24.4,11.2,0000.0,0001.60,0004.81,0000.48
2023-03-12 05:02:00,,0822.4,5.00,0.00,22.5,22.1,00.0,31.0,24.3,11.3,0000.0,0001.59,0005.10,0000.46
2023-03-12 05:03:00,,0822.4,4.99,0.00,22.5,21.8,00.0,31.1,24.3,11.3,0000.0,0001.61,0006.63,0000.45
2023-03-12 05:04:00,,0822.5,5.01,0.00,22.5,21.6,00.0,31.1,24.3,11.3,0000.0,0001.54,0007.19,0000.44
2023-03-12 05:05:00,,0822.5,5.00,0.00,22.5,21.4,00.0,31.1,24.2,11.3,0000.0,0001.57,0007.41,0000.45
2023-03-12 05:06:00,,0822.5,5.00,0.00,22.4,21.3,00.0,31.1,24.2,11.3,0000.0,0001.58,0007.40,0000.45
2023-03-12 05:07:00,,0822.6,5.01,0.00,22.4,21.2,00.0,31.1,24.2,11.3,0000.0,0001.54,0007.26,0000.44
2023-03-12 05:08:00,,0822.6,5.00,0.00,22.4,21.1,00.0,31.1,24.2,11.3,0000.0,0001.51,0007.22,0000.43
2023-03-12 05:09:00,,0822.6,5.00,0.00,22.4,21.0,00.0,31.1,24.2,11.2,0000.0,0001.49,0007.66,0000.44
2023-03-12 05:10:00,,0822.6,5.00,0.00,22.4,20.9,00.0,31.1,24.1,11.1,0000.0,0001.40,0007.38,0000.44
2023-03-12 05:11:00,,0822.6,5.00,0.00,22.4,20.9,00.0,31.1,24.1,11.1,0000.0,0001.41,0007.10,0000.44
2023-03-12 05:12:00,,0822.6,5.00,0.00,22.4,20.8,00.0,31.1,24.1,11.1,0000.0,0001.46,0007.33,0000.44
2023-03-12 05:13:00,,0822.7,5.00,0.00,22.4,20.7,00.0,31.1,24.0,11.1,0000.0,0001.43,0007.80,0000.45
2023-03-12 05:14:00,,0822.6,4.99,0.00,22.3,20.7,00.0,31.1,24.0,11.1,0000.0,0001.41,0007.38,0000.44
2023-03-12 05:15:00,,0822.7,5.00,0.00,22.3,20.6,00.0,31.1,24.0,11.1,0000.0,0001.45,0007.06,0000.44
2023-03-12 05:16:00,,0822.7,5.01,0.00,22.3,20.8,00.0,31.1,24.0,11.1,0000.0,0001.43,0006.98,0000.43
2023-03-12 05:17:00,,0822.7,4.97,0.00,22.4,21.8,00.0,31.1,24.3,11.0,0000.0,0001.43,0006.81,0000.42
2023-03-12 05:18:00,,0822.7,5.03,0.00,22.5,22.8,00.0,31.1,24.5,11.0,0000.0,0001.48,0006.86,0000.42
2023-03-12 05:19:00,,0822.8,4.97,0.00,22.6,22.9,00.0,31.1,24.6,10.9,0000.0,0001.43,0006.65,0000.41
2023-03-12 05:20:00,,0822.8,5.00,0.00,22.6,22.5,00.0,31.2,24.5,10.8,0000.0,0001.46,0006.58,0000.41
2023-03-12 05:21:00,,0822.7,5.01,0.00,22.6,22.1,00.0,31.2,24.4,10.8,0000.0,0001.43,0006.35,0000.40
2023-03-12 05:22:00,,0822.7,5.01,0.00,22.6,21.8,00.0,31.2,24.4,10.7,0000.0,0001.41,0006.74,0000.41
2023-03-12 05:23:00,,0822.7,4.98,0.00,22.6,21.5,00.0,31.2,24.3,10.7,0000.0,0001.38,0006.90,0000.42
2023-03-12 05:24:00,,0822.7,5.01,0.00,22.6,21.3,00.0,31.2,24.2,10.5,0000.0,0001.39,0005.67,0000.41
2023-03-12 05:25:00,,0822.8,5.00,0.00,22.5,21.1,00.0,31.2,24.2,10.4,0000.0,0001.39,0005.37,0000.41
2023-03-12 05:26:00,,0822.8,4.99,0.00,22.5,21.0,00.0,31.2,24.1,10.4,0000.0,0001.34,0005.23,0000.41
2023-03-12 05:27:00,,0822.8,5.01,0.00,22.5,20.9,00.0,31.2,24.1,10.3,0000.0,0001.32,0005.12,0000.41
2023-03-12 05:28:00,,0822.8,5.01,0.00,22.4,20.8,00.0,31.2,24.1,10.3,0000.0,0001.31,0005.23,0000.42
2023-03-12 05:29:00,,0822.9,4.99,0.00,22.4,21.1,00.0,31.2,24.2,10.3,0000.0,0001.34,0005.28,0000.43
2023-03-12 05:30:00,,0822.9,5.01,0.00,22.5,22.2,00.0,31.2,24.4,10.2,0000.0,0001.37,0005.35,0000.44
2023-03-12 05:31:00,,0823.0,4.98,0.00,22.7,23.0,00.0,31.2,24.7,10.2,0000.0,0001.37,0004.93,0000.45
2023-03-12 05:32:00,,0823.0,5.01,0.00,22.7,23.0,00.0,31.3,24.7,10.2,0000.0,0001.40,0005.38,0000.45
2023-03-12 05:33:00,,0823.0,5.01,0.00,22.7,22.5,00.0,31.3,24.6,10.3,0000.0,0001.34,0006.00,0000.45
2023-03-12 05:34:00,,0823.0,5.00,0.00,22.7,22.2,00.0,31.3,24.5,10.3,0000.0,0001.32,0005.80,0000.44
2023-03-12 05:35:00,,0822.9,5.00,0.00,22.7,21.8,00.0,31.4,24.5,10.2,0000.0,0001.30,0006.20,0000.44
2023-03-12 05:36:00,,0822.9,5.01,0.00,22.7,21.6,00.0,31.4,24.4,10.2,0000.0,0001.28,0005.91,0000.44
2023-03-12 05:37:00,,0822.9,5.00,0.00,22.7,21.4,00.0,31.4,24.4,10.1,0000.0,0001.26,0005.47,0000.44
2023-03-12 05:38:00,,0823.0,5.00,0.00,22.6,21.2,00.0,31.4,24.3,10.0,0000.0,0001.22,0005.28,0000.44
2023-03-12 05:39:00,,0823.0,5.01,0.00,22.6,21.1,00.0,31.4,24.2,10.1,0000.0,0001.15,0004.99,0000.43
2023-03-12 05:40:00,,0823.0,5.00,0.00,22.6,20.9,00.0,31.3,24.2,10.2,0000.0,0001.07,0004.80,0000.43
2023-03-12 05:41:00,,0823.0,5.00,0.00,22.5,20.7,00.0,31.3,24.1,10.2,0000.0,0001.03,0004.63,0000.42
2023-03-12 05:42:00,,0823.0,5.00,0.00,22.5,20.6,00.0,31.3,24.0,10.1,0000.0,0000.97,0004.42,0000.41
2023-03-12 05:43:00,,0823.0,5.00,0.00,22.4,20.4,00.0,31.3,23.9,10.0,0000.0,0000.95,0003.84,0000.41
2023-03-12 05:44:00,,0823.0,5.00,0.00,22.3,20.2,00.0,31.3,23.8,10.0,0000.0,0000.94,0002.83,0000.41
2023-03-12 05:45:00,,0823.0,5.01,0.00,22.3,20.5,00.0,31.2,23.9,09.9,0000.0,0000.87,0004.57,0000.40
2023-03-12 05:46:00,,0823.1,4.98,0.00,22.4,21.7,00.0,31.2,24.2,09.9,0000.0,0000.87,0004.11,0000.40
2023-03-12 05:47:00,,0823.1,5.02,0.00,22.5,22.7,00.0,31.2,24.5,09.8,0000.0,0000.96,0004.33,0000.39
2023-03-12 05:48:00,,0823.1,4.99,0.00,22.6,22.6,00.0,31.2,24.4,09.8,0000.0,0000.94,0004.32,0000.37
2023-03-12 05:49:00,,0823.1,5.01,0.00,22.6,22.1,00.0,31.3,24.3,09.8,0000.0,0000.98,0004.44,0000.36
2023-03-12 05:50:00,,0823.1,5.00,0.00,22.5,21.7,00.0,31.3,24.2,09.8,0000.0,0001.00,0004.48,0000.36
2023-03-12 05:51:00,,0823.2,4.98,0.00,22.5,21.3,00.0,31.3,24.1,09.8,0000.0,0000.99,0004.59,0000.36
2023-03-12 05:52:00,,0823.2,5.00,0.00,22.5,21.1,00.0,31.3,24.1,09.7,0000.0,0001.02,0004.83,0000.35
2023-03-12 05:53:00,,0823.2,5.00,0.00,22.4,20.9,00.0,31.3,24.1,09.7,0000.0,0001.02,0004.86,0000.34
2023-03-12 05:54:00,,0823.2,5.00,0.00,22.4,20.8,00.0,31.2,24.0,09.7,0000.0,0001.01,0005.35,0000.33
2023-03-12 05:55:00,,0823.2,5.02,0.00,22.4,20.7,00.0,31.2,24.0,09.7,0000.0,0001.04,0006.56,0000.33
2023-03-12 05:56:00,,0823.2,5.00,0.00,22.3,20.6,00.0,31.2,24.0,09.7,0000.0,0001.06,0004.75,0000.34
2023-03-12 05:57:00,,0823.2,4.98,0.00,22.3,20.5,00.0,31.2,23.9,09.7,0000.0,0001.04,0005.33,0000.35
2023-03-12 05:58:00,,0823.2,5.00,0.00,22.3,20.4,00.0,31.2,23.9,09.7,0000.0,0001.00,0005.77,0000.37
2023-03-12 05:59:00,,0823.2,5.00,0.00,22.2,20.4,00.0,31.2,23.8,09.6,0000.0,0001.01,0005.76,0000.37
